Location: Bletchingley
(51.2333°N, 0.1000°W)
Time: 13:17:41
(UTC+00:00)

Lacrosse 4 Rocket - Pass Details

Date: 18 September 2020
Orbit: 543 x 615 km, 68.0° (Epoch: 21 October)

Event Time Altitude Azimuth Distance (km) Brightness Sun altitude
Rises 20:57:03 0° 328° (NNW) 2,717 6.0 -25.4°
Reaches altitude 10° 20:59:25 10° 339° (NNW) 1,823 4.7 -25.7°
Enters shadow 21:02:10 29° 16° (NNE) 1,036 2.9 -26.0°
